Russellville, AR

4:47 AM CST on February 25, 2017 (GMT -0600)
Russellville Regional

Weather History for KRUE - September, 2013

Change the Weather History Date:

Saturday, September 21, 2013

  Actual Average (KHOT) Record (KHOT)
Temperature  
Mean Temperature 68 °F -  
Max Temperature 82 °F 85 °F 100 °F (2005)
Min Temperature 55 °F 60 °F 45 °F (1983)
Cooling Degree Days 4    
Growing Degree Days 18 (Base 50)    
Moisture  
Dew Point 49 °F    
Average Humidity 56    
Maximum Humidity 90    
Minimum Humidity 22    
Precipitation  
Precipitation 0.00 in - - ()
Sea Level Pressure  
Sea Level Pressure 29.92 in    
Wind  
Wind Speed 5 mph (North)    
Max Wind Speed 13 mph    
Max Gust Speed 17 mph    
Visibility 10 miles    
Events      
Averages and records for this station are not official NWS values.
T = Trace of Precipitation, MM = Missing Value Source: NWS Daily Summary

Daily Weather History Graph

Daily Weather History Graph

Search for Another Location

Airport or City:

Trip Planner

Search our weather history database for the weather conditions in past years. The results will help you decide how hot, cold, wet, or windy it might be!

Date:

Astronomy

Sep. 21, 2013 Rise Set
Actual Time 6:59 AM CDT 7:10 PM CDT
Civil Twilight 6:34 AM CDT 7:35 PM CDT
Nautical Twilight 6:04 AM CDT 8:05 PM CDT
Astronomical Twilight 5:34 AM CDT 8:35 PM CDT
Moon 8:28 PM CDT (9/21) 9:12 AM CDT (9/21)
Length of Visible Light 13h 01m
Length of Day
12h 10m
Waning Gibbous, 94% of the Moon is Illuminated
Sep 21
Waning Gibbous
Sep 26
Last Quarter
Oct 4
New
Oct 11
First Quarter
Oct 18
Full

Hourly Weather History & Observations

Time (CDT) Temp. Dew Point Humidity Pressure Visibility Wind Dir Wind Speed Gust Speed Precip Events Conditions
12:53 AM 66.0 °F 57.0 °F 73% 29.90 in 10.0 mi NW 4.6 mph - N/A   Clear
1:53 AM 64.9 °F 57.0 °F 75% 29.91 in 10.0 mi NW 3.5 mph - N/A   Clear
2:53 AM 63.0 °F 55.9 °F 78% 29.91 in 10.0 mi NNW 3.5 mph - N/A   Clear
3:53 AM 63.0 °F 54.0 °F 72% 29.91 in 10.0 mi NNW 5.8 mph - N/A   Clear
4:53 AM 62.1 °F 53.1 °F 72% 29.92 in 10.0 mi NW 5.8 mph - N/A   Clear
5:53 AM 55.9 °F 53.1 °F 90% 29.94 in 10.0 mi Calm Calm - N/A   Clear
6:53 AM 60.1 °F 51.1 °F 72% 29.94 in 10.0 mi NNW 4.6 mph - N/A   Clear
7:53 AM 60.1 °F 54.0 °F 80% 29.96 in 10.0 mi Calm Calm - N/A   Clear
8:53 AM 66.0 °F 51.1 °F 59% 29.96 in 10.0 mi NW 4.6 mph - N/A   Clear
9:53 AM 69.1 °F 51.1 °F 53% 29.97 in 10.0 mi North 4.6 mph - N/A   Clear
10:53 AM 73.0 °F 51.1 °F 46% 29.97 in 10.0 mi NNE 8.1 mph - N/A   Clear
11:53 AM 75.9 °F 48.9 °F 38% 29.96 in 10.0 mi NE 9.2 mph - N/A   Clear
12:53 PM 79.0 °F 45.0 °F 30% 29.94 in 10.0 mi North 9.2 mph 16.1 mph N/A   Clear
1:53 PM 82.0 °F 41.0 °F 23% 29.91 in 10.0 mi NNW 10.4 mph 17.3 mph N/A   Clear
2:53 PM 82.0 °F 39.0 °F 22% 29.89 in 10.0 mi North 12.7 mph 17.3 mph N/A   Clear
3:53 PM 82.9 °F 42.1 °F 24% 29.87 in 10.0 mi North 5.8 mph - N/A   Clear
4:53 PM 82.0 °F 41.0 °F 23% 29.87 in 10.0 mi North 9.2 mph - N/A   Clear
5:53 PM 81.0 °F 45.0 °F 28% 29.88 in 10.0 mi NE 11.5 mph - N/A   Clear
6:53 PM 75.9 °F 45.0 °F 33% 29.88 in 10.0 mi North 8.1 mph - N/A   Clear
7:53 PM 66.9 °F 48.0 °F 51% 29.89 in 10.0 mi Calm Calm - N/A   Clear
8:53 PM 62.1 °F 50.0 °F 65% 29.89 in 10.0 mi Calm Calm - N/A   Clear
9:53 PM 57.9 °F 50.0 °F 75% 29.90 in 10.0 mi Calm Calm - N/A   Clear
10:53 PM 57.0 °F 50.0 °F 77% 29.91 in 10.0 mi Calm Calm - N/A   Clear
11:53 PM 55.0 °F 51.1 °F 86% 29.91 in 10.0 mi Calm Calm - N/A   Clear